Regional Weather Roundup
Issued by NWS

Home | Current Version | Previous Version | Graphics & Text | Print | Product List | Glossary On
Versions: 1 2 3 4 5 6 7 8 9 10 11 12 13 14 15 16 17 18 19 20 21 22 23 24 25 26 27 28 29 30 31 32 33 34 35 36 37 38 39 40 41 42 43 44 45 46 47 48 49 50
000
ASUS43 KFSD 251810
RWRSD

WEATHER ROUNDUP FOR SOUTH DAKOTA
NATIONAL WEATHER SERVICE SIOUX FALLS SD
100 PM CDT THU MAY 25 2017

NOTE: "FAIR" INDICATES FEW OR NO CLOUDS BELOW 12,000 FEET WITH NO
SIGNIFICANT WEATHER AND/OR OBSTRUCTIONS TO VISIBILITY.


SDZ001>005-009-010-012>017-251900-
NORTHWEST AND NORTH CENTRAL SOUTH DAKOTA

CITY           SKY/WX    TMP DP  RH WIND       PRES   REMARKS
BUFFALO          N/A     64  34  32 W25       29.45R
FAITH            N/A     67  31  26 NW16G25   29.49R
MOBRIDGE       MOSUNNY   68  47  46 N10       29.42S
$$

SDZ012>016-024>037-041>051-057-063-072>074-251900-
SOUTHWEST AND SOUTH CENTRAL SOUTH DAKOTA

CITY           SKY/WX    TMP DP  RH WIND       PRES   REMARKS
RAPID CTY ARPT PTSUNNY   67  26  21 N10       29.54R
PIERRE         CLOUDY    64  47  53 NW9       29.46S
CUSTER         MOSUNNY   58  35  42 SW9G17    29.61R
ELLSWORTH AFB  MOSUNNY   66  27  23 N6        29.53R
PHILIP         CLOUDY    70  32  24 NW14      29.49S
PINE RIDGE     CLOUDY    65  40  39 W5        29.56S
WINNER         CLOUDY    64  50  60 NW14      29.49R
$$

SDZ004>011-016>023-039-040-251900-
NORTHEAST SOUTH DAKOTA

CITY           SKY/WX    TMP DP  RH WIND       PRES   REMARKS
ABERDEEN       CLOUDY    68  46  45 S12       29.43F
WATERTOWN      CLOUDY    65  47  52 S23G36    29.50R
BROOKINGS      MOSUNNY   67  49  52 S25G37    29.52R
SISSETON         N/A     69  48  47 S23G32    29.48S
$$

SDZ017-020-022-023-036>040-048>070-251900-
SOUTHEAST SOUTH DAKOTA

CITY           SKY/WX    TMP DP  RH WIND       PRES   REMARKS
SIOUX FALLS    PTSUNNY   69  51  52 S21G33    29.53S
HURON          MOSUNNY   68  51  54 S15G24    29.44F
CHAMBERLAIN    CLOUDY    67  51  55 W13       29.48R
MITCHELL       CLOUDY    71  50  47 S17G24    29.46S
YANKTON        MOSUNNY   71  47  42 S21G29    29.52S
$$

ABBREVIATIONS USED IN REMARKS
   TC - TEMPERATURE IN CELSIUS
  WCI - WIND CHILL INDEX
   HX - HEAT INDEX
  VSB - VISIBILITY




USA.gov is the U.S. government's official web portal to all federal, state and local government web resources and services.